Simultaneous Nadir Overpasses (SNOs) Predictions

Prediction of SNOs between GOES-16 and METOP-B Satellite Orbit:

Table of predicted SNOs for the next 14.0 days since TLE Epoch: 7/30/2022
Index Date Time (GOES-16) GOES-16 Lat,Lon METOP-B Lat,Lon Distance(km) Time Diff (sec)
1 07/31/2022 02:43:26 0.02, -75.20 -0.70, -78.59 385.70 80
2 08/01/2022 02:25:26 0.02, -75.20 0.37, -73.58 184.16 80
3 08/02/2022 14:41:37 -0.02, -75.22 0.65, -78.14 333.19 80
4 08/03/2022 14:23:37 -0.02, -75.23 -0.48, -73.15 237.03 80
5 08/05/2022 02:39:57 0.02, -75.23 -0.56, -77.74 286.13 80
6 08/06/2022 02:21:57 0.02, -75.24 0.57, -72.75 284.13 80
7 08/07/2022 14:40:49 0.00, -75.27 0.44, -77.31 232.46 80
8 08/08/2022 14:17:28 0.00, -75.28 -0.63, -72.31 337.80 80
9 08/10/2022 02:39:08 -0.00, -75.28 -0.34, -76.91 185.23 80
10 08/11/2022 02:15:48 -0.00, -75.29 0.74, -71.91 385.30 80
11 08/12/2022 14:37:19 0.00, -75.33 0.28, -76.47 130.82 80
